Hourly Weather Abaete

Today, 21 October, Wednesday

Time Temperature Precipitation Wind Pressure Humidity
00:00 +18°C° 0 mm 0 mps 708 mmHg 96%
01:00 +18°C° 0 mm 0 mps 708 mmHg 96%
02:00 +18°C° 0 mm 0 mps 708 mmHg 96%
03:00 +19°C° 0 mm 0 mps 707 mmHg 96%
04:00 +18°C° 0 mm 0 mps 708 mmHg 96%
05:00 +20°C° 0 mm 1 mps 708 mmHg 96%
06:00 +20°C° 0 mm 1 mps 708 mmHg 96%
07:00 +22°C° 0 mm 1 mps 709 mmHg 90%
08:00 +23°C° 0 mm 1 mps 709 mmHg 84%
09:00 +25°C° 0 mm 1 mps 710 mmHg 78%
10:00 +26°C° 0.1 mm 1 mps 710 mmHg 74%
11:00 +27°C° 0.1 mm 1 mps 709 mmHg 70%
12:00 +28°C° 0.1 mm 1 mps 709 mmHg 66%
13:00 +29°C° 0.1 mm 1 mps 708 mmHg 63%
14:00 +29°C° 0.1 mm 1 mps 708 mmHg 60%
15:00 +30°C° 0.1 mm 1 mps 707 mmHg 58%
16:00 +29°C° 0 mm 1 mps 707 mmHg 61%
17:00 +26°C° 0 mm 0 mps 707 mmHg 64%
18:00 +25°C° 0 mm 0 mps 706 mmHg 68%
19:00 +25°C° 0.2 mm 0 mps 707 mmHg 70%
20:00 +24°C° 0.2 mm 0 mps 707 mmHg 72%
21:00 +23°C° 0.2 mm 0 mps 708 mmHg 74%
22:00 +25°C° 0.8 mm 1 mps 708 mmHg 77%
23:00 +25°C° 0.8 mm 1 mps 708 mmHg 80%

Tomorrow, 22 October, Thursday

Time Temperature Precipitation Wind Pressure Humidity
00:00 +24°C° 0.8 mm 1 mps 707 mmHg 82%
01:00 +24°C° 1 mm 1 mps 707 mmHg 85%
02:00 +23°C° 1 mm 2 mps 707 mmHg 87%
03:00 +23°C° 1 mm 2 mps 706 mmHg 89%
04:00 +23°C° 0.1 mm 2 mps 707 mmHg 90%
05:00 +21°C° 0.1 mm 2 mps 707 mmHg 90%
06:00 +21°C° 0.1 mm 2 mps 707 mmHg 90%
07:00 +24°C° 0 mm 2 mps 708 mmHg 85%
08:00 +25°C° 0 mm 2 mps 708 mmHg 79%
09:00 +26°C° 0 mm 3 mps 708 mmHg 74%
10:00 +28°C° 0.3 mm 3 mps 708 mmHg 69%
11:00 +29°C° 0.3 mm 3 mps 708 mmHg 65%
12:00 +30°C° 0.3 mm 3 mps 708 mmHg 60%
13:00 +30°C° 1.7 mm 3 mps 707 mmHg 61%
14:00 +30°C° 1.7 mm 3 mps 706 mmHg 63%
15:00 +29°C° 1.7 mm 3 mps 705 mmHg 64%
16:00 +28°C° 2.6 mm 3 mps 706 mmHg 69%
17:00 +27°C° 2.6 mm 3 mps 706 mmHg 74%
18:00 +26°C° 2.6 mm 3 mps 706 mmHg 79%
19:00 +25°C° 2.5 mm 3 mps 706 mmHg 81%
20:00 +25°C° 2.5 mm 4 mps 707 mmHg 83%
21:00 +23°C° 2.5 mm 4 mps 707 mmHg 84%
22:00 +23°C° 1.9 mm 4 mps 708 mmHg 86%
23:00 +22°C° 1.9 mm 3 mps 708 mmHg 88%

Day after tomorrow, 23 October, Friday

Time Temperature Precipitation Wind Pressure Humidity
00:00 +22°C° 1.9 mm 3 mps 708 mmHg 90%
01:00 +22°C° 1.7 mm 3 mps 707 mmHg 91%
02:00 +21°C° 1.7 mm 3 mps 707 mmHg 91%
03:00 +21°C° 1.7 mm 3 mps 707 mmHg 92%
04:00 +21°C° 1 mm 3 mps 707 mmHg 91%
05:00 +21°C° 1 mm 3 mps 707 mmHg 90%
06:00 +21°C° 1 mm 3 mps 708 mmHg 90%
07:00 +21°C° 0.1 mm 3 mps 708 mmHg 86%
08:00 +22°C° 0.1 mm 3 mps 709 mmHg 83%
09:00 +22°C° 0.1 mm 3 mps 709 mmHg 80%
10:00 +24°C° 0 mm 3 mps 709 mmHg 77%
11:00 +25°C° 0 mm 3 mps 708 mmHg 74%
12:00 +25°C° 0 mm 3 mps 708 mmHg 72%
13:00 +25°C° 0 mm 3 mps 707 mmHg 71%
14:00 +26°C° 0 mm 3 mps 707 mmHg 70%
15:00 +26°C° 0 mm 3 mps 706 mmHg 68%
16:00 +25°C° 0.3 mm 3 mps 706 mmHg 72%
17:00 +25°C° 0.3 mm 3 mps 706 mmHg 75%
18:00 +24°C° 0.3 mm 3 mps 706 mmHg 79%
19:00 +22°C° 0 mm 3 mps 706 mmHg 80%
20:00 +23°C° 0 mm 2 mps 706 mmHg 82%
21:00 +23°C° 0 mm 2 mps 707 mmHg 83%
22:00 +21°C° 0.4 mm 2 mps 707 mmHg 84%
23:00 +21°C° 0.4 mm 2 mps 707 mmHg 85%

24 October, Saturday

Time Temperature Precipitation Wind Pressure Humidity
00:00 +21°C° 0.4 mm 2 mps 707 mmHg 85%
01:00 +20°C° 2.4 mm 2 mps 706 mmHg 88%
02:00 +20°C° 2.4 mm 2 mps 706 mmHg 91%
03:00 +19°C° 2.4 mm 2 mps 706 mmHg 94%
04:00 +20°C° 1.2 mm 2 mps 706 mmHg 94%
05:00 +20°C° 1.2 mm 2 mps 706 mmHg 94%
06:00 +21°C° 1.2 mm 1 mps 707 mmHg 94%
07:00 +20°C° 0.6 mm 2 mps 707 mmHg 92%
08:00 +20°C° 0.6 mm 2 mps 707 mmHg 90%
09:00 +21°C° 0.6 mm 3 mps 708 mmHg 88%
10:00 +21°C° 0.9 mm 2 mps 707 mmHg 88%
11:00 +21°C° 0.9 mm 2 mps 707 mmHg 88%
12:00 +22°C° 0.9 mm 1 mps 707 mmHg 88%
13:00 +22°C° 1 mm 1 mps 706 mmHg 89%
14:00 +22°C° 1 mm 1 mps 705 mmHg 90%
15:00 +22°C° 1 mm 1 mps 705 mmHg 91%
16:00 +22°C° 1.8 mm 1 mps 704 mmHg 93%
17:00 +22°C° 1.8 mm 1 mps 704 mmHg 94%
18:00 +22°C° 1.8 mm 1 mps 704 mmHg 96%
19:00 +22°C° 0.6 mm 1 mps 704 mmHg 96%
20:00 +22°C° 0.6 mm 1 mps 704 mmHg 96%
21:00 +22°C° 0.6 mm 1 mps 704 mmHg 95%
22:00 +21°C° 0.4 mm 2 mps 704 mmHg 95%
23:00 +21°C° 0.4 mm 3 mps 704 mmHg 95%

25 October, Sunday

Time Temperature Precipitation Wind Pressure Humidity
00:00 +21°C° 0.4 mm 4 mps 704 mmHg 94%
01:00 +21°C° 0.7 mm 3 mps 703 mmHg 94%
02:00 +21°C° 0.7 mm 3 mps 703 mmHg 94%
03:00 +21°C° 0.7 mm 3 mps 702 mmHg 94%
04:00 +21°C° 3.5 mm 3 mps 703 mmHg 95%
05:00 +21°C° 3.5 mm 4 mps 703 mmHg 95%
06:00 +21°C° 3.5 mm 4 mps 703 mmHg 96%
07:00 +21°C° 2.9 mm 4 mps 703 mmHg 95%
08:00 +21°C° 2.9 mm 4 mps 704 mmHg 94%
09:00 +21°C° 2.9 mm 4 mps 704 mmHg 93%
10:00 +22°C° 0.3 mm 4 mps 704 mmHg 90%
11:00 +23°C° 0.3 mm 4 mps 704 mmHg 87%
12:00 +25°C° 0.3 mm 4 mps 703 mmHg 84%
13:00 +26°C° 1.4 mm 4 mps 703 mmHg 81%
14:00 +27°C° 1.4 mm 4 mps 703 mmHg 78%
15:00 +28°C° 1.4 mm 4 mps 702 mmHg 76%
16:00 +27°C° 2.3 mm 3 mps 702 mmHg 79%
17:00 +26°C° 2.3 mm 3 mps 702 mmHg 82%
18:00 +25°C° 2.3 mm 3 mps 702 mmHg 86%
19:00 +24°C° 1.9 mm 2 mps 702 mmHg 87%
20:00 +24°C° 1.9 mm 2 mps 703 mmHg 88%
21:00 +23°C° 1.9 mm 1 mps 703 mmHg 89%
22:00 +23°C° 0.7 mm 1 mps 703 mmHg 91%
23:00 +23°C° 0.7 mm 1 mps 703 mmHg 92%

26 October, Monday

Time Temperature Precipitation Wind Pressure Humidity
00:00 +22°C° 0.7 mm 1 mps 702 mmHg 93%
01:00 +22°C° 0.2 mm 1 mps 702 mmHg 94%
02:00 +22°C° 0.2 mm 1 mps 702 mmHg 95%
03:00 +21°C° 0.2 mm 1 mps 702 mmHg 96%
04:00 +21°C° 0 mm 1 mps 702 mmHg 96%
05:00 +21°C° 0 mm 1 mps 702 mmHg 96%
06:00 +21°C° 0 mm 1 mps 702 mmHg 96%
07:00 +22°C° 0 mm 1 mps 703 mmHg 92%
08:00 +23°C° 0 mm 1 mps 703 mmHg 88%
09:00 +24°C° 0 mm 1 mps 704 mmHg 84%
10:00 +26°C° 0 mm 1 mps 704 mmHg 79%
11:00 +27°C° 0 mm 1 mps 703 mmHg 74%
12:00 +27°C° 0 mm 0 mps 703 mmHg 69%
13:00 +27°C° 0 mm 0 mps 703 mmHg 67%
14:00 +28°C° 0 mm 0 mps 702 mmHg 65%
15:00 +30°C° 0 mm 1 mps 702 mmHg 63%
16:00 +29°C° 0.4 mm 1 mps 701 mmHg 68%
17:00 +26°C° 0.4 mm 0 mps 701 mmHg 73%
18:00 +25°C° 0.4 mm 0 mps 701 mmHg 78%
19:00 +25°C° 0.5 mm 0 mps 702 mmHg 79%
20:00 +26°C° 0.5 mm 1 mps 702 mmHg 81%
21:00 +26°C° 0.5 mm 1 mps 703 mmHg 83%
22:00 +25°C° 0.4 mm 1 mps 702 mmHg 83%
23:00 +25°C° 0.4 mm 1 mps 702 mmHg 84%

27 October, Tuesday

Time Temperature Precipitation Wind Pressure Humidity
00:00 +25°C° 0.4 mm 1 mps 702 mmHg 85%
01:00 +25°C° 0.3 mm 1 mps 702 mmHg 86%
02:00 +25°C° 0.3 mm 1 mps 701 mmHg 87%
03:00 +24°C° 0.3 mm 1 mps 701 mmHg 88%
04:00 +24°C° 0.9 mm 1 mps 701 mmHg 87%
05:00 +24°C° 0.9 mm 1 mps 701 mmHg 87%
06:00 +24°C° 0.9 mm 1 mps 702 mmHg 86%
07:00 +26°C° 0.2 mm 2 mps 702 mmHg 79%
08:00 +27°C° 0.2 mm 2 mps 702 mmHg 73%
09:00 +29°C° 0.2 mm 2 mps 703 mmHg 66%
10:00 +30°C° 0.2 mm 3 mps 702 mmHg 62%
11:00 +31°C° 0.2 mm 3 mps 702 mmHg 57%
12:00 +33°C° 0.2 mm 3 mps 702 mmHg 53%
13:00 +33°C° 0 mm 3 mps 701 mmHg 53%
14:00 +33°C° 0 mm 3 mps 701 mmHg 54%
15:00 +33°C° 0 mm 3 mps 700 mmHg 55%
16:00 +31°C° 0.6 mm 3 mps 700 mmHg 62%
17:00 +29°C° 0.6 mm 3 mps 700 mmHg 68%
18:00 +27°C° 0.6 mm 3 mps 700 mmHg 74%
19:00 +27°C° 1.1 mm 2 mps 701 mmHg 77%
20:00 +26°C° 1.1 mm 2 mps 701 mmHg 80%
21:00 +25°C° 1.1 mm 2 mps 702 mmHg 82%
22:00 +25°C° 0.3 mm 1 mps 702 mmHg 83%
23:00 +25°C° 0.3 mm 1 mps 702 mmHg 84%
Show more